Darstellungsparameter: Aktuell verwendete Einstellungen:
Skalierung der Graphiken ... ?
xyx+y,   Skalierungsfaktor:      Skalierung: Modus: x, Faktor: 1
Darstellungszeitraum ... ?
Vom - - bis: - -   Zeitraum: 03.03.2021 - 04.03.2021
Min/Max/Avg-Anzeige ... ?
Zeige MMA aktuell
Zeige MMA Monat
Zeige MMA alles
Zeige --A aktuell
Zeige --A Monat
Zeige --A alles
Keine MMA-Anzeige
MMA:
Minimum Maximum Average (ber die Originaldaten)
MMA-Basis: 03.03.2021 - 04.03.2021
Quicknavigation für Darstellung... ?
Tage:      1T, 2T, 3T, 5T -1T -2T -3T -5T +1T +2T +3T +5T
Wochen: 1W, 2W, 3W -1W -2W -3W +1W +2W +3W
Monate: 1M, 3M, 6M -1M -3M -6M +1M +3M +6M
Jahre:    1J, 3J, 5J, 10J -1J -3J -5J -10J +1J +3J +5J +10J
Nutze für die Darstellung ... ?
Originaldaten oder Mittelwerte auf ...
Stundenbasis Tagesbasis Wochenbasis
Monatsbasis Jahresbasis      Datenbasis: Original-Daten
Darstellen als:
Statistik (Auto) Statistik J:M      Darstellung:
Zur Graphik,    zurück zur Übersicht aller Sensoren.
 
Tabellarische Datenbersicht: ?
 
Sensor: Nr:Datum:Temp:Abs-Feuchte:Windchill:Wind:
Aussen-T/F 1 03-03-2021 00:00:00 2.9 C 5.37 g/m*3 2.9 C 0 km/h
2 03-03-2021 00:05:00 2.8 C 5.34 g/m*3 2.8 C 1.6 km/h
3 03-03-2021 00:10:00 2.8 C 5.34 g/m*3 2.8 C 0 km/h
4 03-03-2021 00:15:00 2.7 C 5.36 g/m*3 2.7 C 0 km/h
5 03-03-2021 00:20:00 2.6 C 5.32 g/m*3 2.6 C 0 km/h
6 03-03-2021 00:25:00 2.6 C 5.32 g/m*3 2.6 C 0 km/h
7 03-03-2021 00:30:00 2.6 C 5.32 g/m*3 2.6 C 0 km/h
8 03-03-2021 00:35:00 2.6 C 5.32 g/m*3 2.6 C 0 km/h
9 03-03-2021 00:40:00 2.5 C 5.29 g/m*3 2.5 C 0 km/h
10 03-03-2021 00:45:00 2.5 C 5.29 g/m*3 2.5 C 0 km/h
11 03-03-2021 00:50:00 2.4 C 5.25 g/m*3 2.4 C 0 km/h
12 03-03-2021 00:55:00 2.4 C 5.31 g/m*3 2.4 C 0 km/h
13 03-03-2021 01:00:00 2.3 C 5.27 g/m*3 2.3 C 0 km/h
14 03-03-2021 01:05:00 2.3 C 5.27 g/m*3 2.3 C 0 km/h
15 03-03-2021 01:10:00 2.3 C 5.27 g/m*3 2.3 C 0 km/h
16 03-03-2021 01:15:00 2.3 C 5.27 g/m*3 2.3 C 0 km/h
17 03-03-2021 01:20:00 2.2 C 5.24 g/m*3 2.2 C 0 km/h
18 03-03-2021 01:25:00 2.1 C 5.2 g/m*3 2.1 C 0 km/h
19 03-03-2021 01:30:00 2 C 5.17 g/m*3 2 C 0 km/h
20 03-03-2021 01:35:00 1.9 C 5.13 g/m*3 1.9 C 0 km/h
21 03-03-2021 01:40:00 1.8 C 5.1 g/m*3 1.8 C 0 km/h
22 03-03-2021 01:45:00 1.8 C 5.1 g/m*3 1.8 C 0 km/h
23 03-03-2021 01:50:00 1.8 C 5.1 g/m*3 1.8 C 0 km/h
24 03-03-2021 01:55:00 1.8 C 5.1 g/m*3 1.8 C 0 km/h
25 03-03-2021 02:00:00 1.7 C 5.06 g/m*3 1.7 C 0 km/h
Sensor: Nr:Datum:Temp:Abs-Feuchte:Windchill:Wind:
Aussen-T/F 26 03-03-2021 02:05:00 1.7 C 5.06 g/m*3 1.7 C 0 km/h
27 03-03-2021 02:10:00 1.5 C 4.99 g/m*3 1.5 C 0 km/h
28 03-03-2021 02:15:00 1.5 C 5.05 g/m*3 1.5 C 0 km/h
29 03-03-2021 02:20:00 1.4 C 4.96 g/m*3 1.4 C 0 km/h
30 03-03-2021 02:25:00 1.5 C 5.05 g/m*3 1.5 C 0 km/h
31 03-03-2021 02:30:00 1.4 C 5.01 g/m*3 1.4 C 0 km/h
32 03-03-2021 02:35:00 1.4 C 5.01 g/m*3 1.4 C 0 km/h
33 03-03-2021 02:40:00 1.3 C 4.98 g/m*3 1.3 C 0 km/h
34 03-03-2021 02:45:00 1.2 C 4.95 g/m*3 1.2 C 0 km/h
35 03-03-2021 02:50:00 1.2 C 4.95 g/m*3 1.2 C 0 km/h
36 03-03-2021 02:55:00 1.2 C 4.95 g/m*3 1.2 C 0 km/h
37 03-03-2021 03:00:00 1.2 C 4.95 g/m*3 1.2 C 0 km/h
38 03-03-2021 03:05:00 1.1 C 4.91 g/m*3 1.1 C 0 km/h
39 03-03-2021 03:10:00 1.2 C 4.95 g/m*3 1.2 C 0 km/h
40 03-03-2021 03:15:00 1.2 C 4.95 g/m*3 1.2 C 0 km/h
41 03-03-2021 03:20:00 1.2 C 4.95 g/m*3 1.2 C 0 km/h
42 03-03-2021 03:25:00 1.1 C 4.91 g/m*3 1.1 C 0 km/h
43 03-03-2021 03:30:00 1.1 C 4.91 g/m*3 1.1 C 0 km/h
44 03-03-2021 03:35:00 1 C 4.88 g/m*3 1 C 0 km/h
45 03-03-2021 03:40:00 0.9 C 4.85 g/m*3 0.9 C 0 km/h
46 03-03-2021 03:45:00 1 C 4.88 g/m*3 1 C 0 km/h
47 03-03-2021 03:50:00 1 C 4.88 g/m*3 1 C 0 km/h
48 03-03-2021 03:55:00 1.1 C 4.96 g/m*3 1.1 C 0 km/h
49 03-03-2021 04:00:00 1.1 C 4.96 g/m*3 1.1 C 0 km/h
50 03-03-2021 04:05:00 1.2 C 5 g/m*3 1.2 C 0 km/h
Sensor: Nr:Datum:Temp:Abs-Feuchte:Windchill:Wind:
Aussen-T/F 51 03-03-2021 04:10:00 1.2 C 5 g/m*3 1.2 C 0 km/h
52 03-03-2021 04:15:00 1.2 C 5 g/m*3 1.2 C 0 km/h
53 03-03-2021 04:20:00 1.3 C 5.03 g/m*3 1.3 C 0 km/h
54 03-03-2021 04:25:00 1.4 C 5.07 g/m*3 1.4 C 0 km/h
55 03-03-2021 04:30:00 1.5 C 5.1 g/m*3 1.5 C 0 km/h
56 03-03-2021 04:35:00 1.4 C 5.07 g/m*3 1.4 C 0 km/h
57 03-03-2021 04:40:00 1.3 C 5.03 g/m*3 1.3 C 0 km/h
58 03-03-2021 04:45:00 1.2 C 5 g/m*3 1.2 C 0 km/h
59 03-03-2021 04:50:00 1.1 C 4.91 g/m*3 1.1 C 0 km/h
60 03-03-2021 04:55:00 1 C 4.93 g/m*3 1 C 0 km/h
61 03-03-2021 05:00:00 0.9 C 4.9 g/m*3 0.9 C 0 km/h
62 03-03-2021 05:05:00 0.8 C 4.81 g/m*3 0.8 C 0 km/h
63 03-03-2021 05:10:00 0.8 C 4.86 g/m*3 0.8 C 0 km/h
64 03-03-2021 05:15:00 0.8 C 4.86 g/m*3 0.8 C 0 km/h
65 03-03-2021 05:20:00 0.7 C 4.83 g/m*3 0.7 C 0 km/h
66 03-03-2021 05:25:00 0.7 C 4.83 g/m*3 0.7 C 1.6 km/h
67 03-03-2021 05:30:00 0.8 C 4.86 g/m*3 0.8 C 0 km/h
68 03-03-2021 05:35:00 0.9 C 4.9 g/m*3 0.9 C 3.2 km/h
69 03-03-2021 05:40:00 1 C 4.93 g/m*3 1 C 1.6 km/h
70 03-03-2021 05:45:00 1.1 C 4.96 g/m*3 1.1 C 0 km/h
71 03-03-2021 05:50:00 1.1 C 4.96 g/m*3 1.1 C 0 km/h
72 03-03-2021 05:55:00 1.1 C 4.96 g/m*3 1.1 C 0 km/h
73 03-03-2021 06:00:00 1 C 4.93 g/m*3 1 C 0 km/h
74 03-03-2021 06:05:00 0.9 C 4.9 g/m*3 0.9 C 0 km/h
75 03-03-2021 06:10:00 0.8 C 4.86 g/m*3 0.8 C 0 km/h
Sensor: Nr:Datum:Temp:Abs-Feuchte:Windchill:Wind:
Aussen-T/F 76 03-03-2021 06:15:00 0.8 C 4.86 g/m*3 0.8 C 0 km/h
77 03-03-2021 06:20:00 0.7 C 4.83 g/m*3 0.7 C 0 km/h
78 03-03-2021 06:25:00 0.7 C 4.83 g/m*3 0.7 C 0 km/h
79 03-03-2021 06:30:00 0.7 C 4.83 g/m*3 0.7 C 0 km/h
80 03-03-2021 06:35:00 0.8 C 4.86 g/m*3 0.8 C 0 km/h
81 03-03-2021 06:40:00 0.9 C 4.9 g/m*3 0.9 C 0 km/h
82 03-03-2021 06:45:00 0.9 C 4.95 g/m*3 0.9 C 0 km/h
83 03-03-2021 06:50:00 0.9 C 4.9 g/m*3 0.9 C 0 km/h
84 03-03-2021 06:55:00 0.9 C 4.9 g/m*3 0.9 C 0 km/h
85 03-03-2021 07:00:00 0.9 C 4.9 g/m*3 0.9 C 0 km/h
86 03-03-2021 07:05:00 0.8 C 4.86 g/m*3 0.8 C 0 km/h
87 03-03-2021 07:10:00 0.8 C 4.86 g/m*3 0.8 C 0 km/h
88 03-03-2021 07:15:00 0.7 C 4.83 g/m*3 0.7 C 0 km/h
89 03-03-2021 07:20:00 0.7 C 4.83 g/m*3 0.7 C 0 km/h
90 03-03-2021 07:25:00 0.6 C 4.8 g/m*3 0.6 C 0 km/h
91 03-03-2021 07:30:00 0.6 C 4.8 g/m*3 0.6 C 0 km/h
92 03-03-2021 07:35:00 0.7 C 4.83 g/m*3 0.7 C 0 km/h
93 03-03-2021 07:40:00 0.7 C 4.83 g/m*3 0.7 C 0 km/h
94 03-03-2021 07:45:00 0.8 C 4.86 g/m*3 0.8 C 0 km/h
95 03-03-2021 07:50:00 0.9 C 4.95 g/m*3 0.9 C 0 km/h
96 03-03-2021 07:55:00 0.9 C 4.95 g/m*3 0.9 C 0 km/h
97 03-03-2021 08:00:00 1.1 C 5.02 g/m*3 1.1 C 0 km/h
98 03-03-2021 08:05:00 1.1 C 5.02 g/m*3 1.1 C 0 km/h
99 03-03-2021 08:10:00 1.2 C 5.05 g/m*3 1.2 C 0 km/h
100 03-03-2021 08:15:00 1.3 C 5.09 g/m*3 1.3 C 0 km/h
Sensor: Nr:Datum:Temp:Abs-Feuchte:Windchill:Wind:
Aussen-T/F 101 03-03-2021 08:20:00 1.4 C 5.12 g/m*3 1.4 C 0 km/h
102 03-03-2021 08:25:00 1.5 C 5.16 g/m*3 1.5 C 0 km/h
103 03-03-2021 08:30:00 1.6 C 5.19 g/m*3 1.6 C 0 km/h
104 03-03-2021 08:35:00 1.7 C 5.23 g/m*3 1.7 C 0 km/h
105 03-03-2021 08:40:00 1.8 C 5.26 g/m*3 1.8 C 0 km/h
106 03-03-2021 08:45:00 1.9 C 5.3 g/m*3 1.9 C 0 km/h
107 03-03-2021 08:50:00 1.9 C 5.3 g/m*3 1.9 C 0 km/h
108 03-03-2021 08:55:00 2 C 5.33 g/m*3 2 C 0 km/h
109 03-03-2021 09:00:00 2.1 C 5.37 g/m*3 2.1 C 0 km/h
110 03-03-2021 09:05:00 2.1 C 5.37 g/m*3 2.1 C 0 km/h
111 03-03-2021 09:10:00 2.2 C 5.41 g/m*3 2.2 C 0 km/h
112 03-03-2021 09:15:00 2.2 C 5.41 g/m*3 2.2 C 0 km/h
113 03-03-2021 09:20:00 2.3 C 5.44 g/m*3 2.3 C 0 km/h
114 03-03-2021 09:25:00 2.3 C 5.44 g/m*3 2.3 C 0 km/h
115 03-03-2021 09:30:00 2.4 C 5.48 g/m*3 2.4 C 0 km/h
116 03-03-2021 09:35:00 2.6 C 5.56 g/m*3 2.6 C 3.2 km/h
117 03-03-2021 09:40:00 2.6 C 5.56 g/m*3 2.6 C 1.6 km/h
118 03-03-2021 09:45:00 2.6 C 5.56 g/m*3 2.6 C 0 km/h
119 03-03-2021 09:50:00 2.7 C 5.54 g/m*3 2.7 C 0 km/h
120 03-03-2021 09:55:00 2.7 C 5.54 g/m*3 2.7 C 0 km/h
121 03-03-2021 10:00:00 2.8 C 5.57 g/m*3 2.8 C 0 km/h
122 03-03-2021 10:05:00 2.8 C 5.57 g/m*3 2.8 C 0 km/h
123 03-03-2021 10:10:00 2.9 C 5.67 g/m*3 2.9 C 0 km/h
124 03-03-2021 10:15:00 3 C 5.65 g/m*3 3 C 0 km/h
125 03-03-2021 10:20:00 3.2 C 5.72 g/m*3 3.2 C 0 km/h
Sensor: Nr:Datum:Temp:Abs-Feuchte:Windchill:Wind:
Aussen-T/F 126 03-03-2021 10:25:00 3.3 C 5.76 g/m*3 3.3 C 0 km/h
127 03-03-2021 10:30:00 3.4 C 5.8 g/m*3 3.4 C 0 km/h
128 03-03-2021 10:35:00 3.6 C 5.94 g/m*3 3.6 C 0 km/h
129 03-03-2021 10:40:00 3.8 C 6.02 g/m*3 3.8 C 0 km/h
130 03-03-2021 10:45:00 3.9 C 6 g/m*3 3.9 C 0 km/h
131 03-03-2021 10:50:00 4.2 C 6.12 g/m*3 4.2 C 0 km/h
132 03-03-2021 10:55:00 4.3 C 6.16 g/m*3 4.3 C 0 km/h
133 03-03-2021 11:00:00 4.6 C 6.29 g/m*3 4.6 C 0 km/h
134 03-03-2021 11:05:00 4.8 C 6.3 g/m*3 4.8 C 0 km/h
135 03-03-2021 11:10:00 5.1 C 6.43 g/m*3 5.1 C 0 km/h
136 03-03-2021 11:15:00 5.3 C 6.45 g/m*3 5.3 C 0 km/h
137 03-03-2021 11:20:00 5.7 C 6.55 g/m*3 5.7 C 0 km/h
138 03-03-2021 11:25:00 6 C 6.6 g/m*3 6 C 0 km/h
139 03-03-2021 11:30:00 6.3 C 6.66 g/m*3 6.3 C 0 km/h
140 03-03-2021 11:35:00 6.6 C 6.72 g/m*3 6.6 C 0 km/h
141 03-03-2021 11:40:00 7 C 6.82 g/m*3 7 C 0 km/h
142 03-03-2021 11:45:00 7.3 C 6.79 g/m*3 7.3 C 0 km/h
143 03-03-2021 11:50:00 7.7 C 6.81 g/m*3 7.7 C 0 km/h
144 03-03-2021 11:55:00 8 C 6.86 g/m*3 8 C 0 km/h
145 03-03-2021 12:00:00 8.3 C 6.91 g/m*3 8.3 C 0 km/h
146 03-03-2021 12:05:00 8.6 C 6.96 g/m*3 8.6 C 0 km/h
147 03-03-2021 12:10:00 8.9 C 6.92 g/m*3 8.9 C 0 km/h
148 03-03-2021 12:15:00 9.2 C 6.97 g/m*3 9.2 C 0 km/h
149 03-03-2021 12:20:00 9.5 C 7.1 g/m*3 9.5 C 0 km/h
150 03-03-2021 12:25:00 9.9 C 7.38 g/m*3 9.9 C 0 km/h
Sensor: Nr:Datum:Temp:Abs-Feuchte:Windchill:Wind:
Aussen-T/F 151 03-03-2021 12:30:00 10.4 C 7.71 g/m*3 10.4 C 0 km/h
152 03-03-2021 12:35:00 10.8 C 7.41 g/m*3 10.8 C 0 km/h
153 03-03-2021 12:40:00 11.2 C 7.2 g/m*3 11.2 C 0 km/h
154 03-03-2021 12:45:00 11.4 C 7.19 g/m*3 11.4 C 0 km/h
155 03-03-2021 12:50:00 11.6 C 7.17 g/m*3 11.6 C 0 km/h
156 03-03-2021 12:55:00 11.8 C 7.26 g/m*3 11.8 C 0 km/h
157 03-03-2021 13:00:00 12.2 C 7.66 g/m*3 12.2 C 0 km/h
158 03-03-2021 13:05:00 12.5 C 7.7 g/m*3 12.5 C 0 km/h
159 03-03-2021 13:10:00 12.7 C 7.57 g/m*3 12.7 C 0 km/h
160 03-03-2021 13:15:00 12.9 C 7.44 g/m*3 12.9 C 0 km/h
161 03-03-2021 13:20:00 13.2 C 7.35 g/m*3 13.2 C 0 km/h
162 03-03-2021 13:25:00 13.5 C 7.49 g/m*3 13.5 C 0 km/h
163 03-03-2021 13:30:00 13.7 C 7.58 g/m*3 13.7 C 0 km/h
164 03-03-2021 13:35:00 14 C 7.84 g/m*3 14 C 0 km/h
165 03-03-2021 13:40:00 14.4 C 7.54 g/m*3 14.4 C 0 km/h
166 03-03-2021 13:45:00 14.7 C 7.43 g/m*3 14.7 C 0 km/h
167 03-03-2021 13:50:00 15 C 7.57 g/m*3 15 C 4.8 km/h
168 03-03-2021 13:55:00 15.3 C 7.57 g/m*3 15.3 C 4.8 km/h
169 03-03-2021 14:00:00 15.6 C 7.31 g/m*3 15.6 C 1.6 km/h
170 03-03-2021 14:05:00 15.8 C 7.54 g/m*3 15.8 C 0 km/h
171 03-03-2021 14:10:00 15.7 C 7.63 g/m*3 15.7 C 8.1 km/h
172 03-03-2021 14:15:00 15.5 C 7.53 g/m*3 15.5 C 3.2 km/h
173 03-03-2021 14:20:00 15.4 C 7.62 g/m*3 15.4 C 0 km/h
174 03-03-2021 14:25:00 15.4 C 7.62 g/m*3 15.4 C 0 km/h
175 03-03-2021 14:30:00 15.4 C 7.62 g/m*3 15.4 C 0 km/h
Sensor: Nr:Datum:Temp:Abs-Feuchte:Windchill:Wind:
Aussen-T/F 176 03-03-2021 14:35:00 15.5 C 7.53 g/m*3 15.5 C 0 km/h
177 03-03-2021 14:40:00 15.6 C 7.58 g/m*3 15.6 C 0 km/h
178 03-03-2021 14:45:00 15.7 C 7.63 g/m*3 15.7 C 0 km/h
179 03-03-2021 14:50:00 15.8 C 7.54 g/m*3 15.8 C 0 km/h
180 03-03-2021 14:55:00 15.8 C 7.81 g/m*3 15.8 C 0 km/h
181 03-03-2021 15:00:00 15.9 C 7.58 g/m*3 15.9 C 0 km/h
182 03-03-2021 15:05:00 15.9 C 7.58 g/m*3 15.9 C 0 km/h
183 03-03-2021 15:10:00 16 C 7.63 g/m*3 16 C 0 km/h
184 03-03-2021 15:15:00 16.1 C 7.68 g/m*3 16.1 C 0 km/h
185 03-03-2021 15:20:00 16.1 C 7.4 g/m*3 16.1 C 0 km/h
186 03-03-2021 15:25:00 16.2 C 7.45 g/m*3 16.2 C 0 km/h
187 03-03-2021 15:30:00 16.2 C 8 g/m*3 16.2 C 0 km/h
188 03-03-2021 15:35:00 16.3 C 7.77 g/m*3 16.3 C 0 km/h
189 03-03-2021 15:40:00 16.3 C 7.35 g/m*3 16.3 C 0 km/h
190 03-03-2021 15:45:00 16.4 C 7.4 g/m*3 16.4 C 0 km/h
191 03-03-2021 15:50:00 16.5 C 7.72 g/m*3 16.5 C 0 km/h
192 03-03-2021 15:55:00 16.6 C 7.35 g/m*3 16.6 C 0 km/h
193 03-03-2021 16:00:00 16.6 C 7.49 g/m*3 16.6 C 0 km/h
194 03-03-2021 16:05:00 16.6 C 7.2 g/m*3 16.6 C 0 km/h
195 03-03-2021 16:10:00 16.7 C 7.67 g/m*3 16.7 C 0 km/h
196 03-03-2021 16:15:00 16.7 C 7.82 g/m*3 16.7 C 0 km/h
197 03-03-2021 16:20:00 16.8 C 8.01 g/m*3 16.8 C 0 km/h
198 03-03-2021 16:25:00 16.8 C 7.86 g/m*3 16.8 C 0 km/h
199 03-03-2021 16:30:00 16.7 C 7.82 g/m*3 16.7 C 0 km/h
200 03-03-2021 16:35:00 16.7 C 8.38 g/m*3 16.7 C 0 km/h
Sensor: Nr:Datum:Temp:Abs-Feuchte:Windchill:Wind:
Aussen-T/F 201 03-03-2021 16:40:00 16.6 C 8.19 g/m*3 16.6 C 0 km/h
202 03-03-2021 16:45:00 16.5 C 8.14 g/m*3 16.5 C 0 km/h
203 03-03-2021 16:50:00 16.3 C 8.05 g/m*3 16.3 C 0 km/h
204 03-03-2021 16:55:00 16.1 C 8.09 g/m*3 16.1 C 0 km/h
205 03-03-2021 17:00:00 15.9 C 8.13 g/m*3 15.9 C 0 km/h
206 03-03-2021 17:05:00 15.6 C 8.25 g/m*3 15.6 C 0 km/h
207 03-03-2021 17:10:00 15.3 C 8.23 g/m*3 15.3 C 0 km/h
208 03-03-2021 17:15:00 15.1 C 8.13 g/m*3 15.1 C 0 km/h
209 03-03-2021 17:20:00 14.9 C 8.03 g/m*3 14.9 C 0 km/h
210 03-03-2021 17:25:00 14.6 C 8.13 g/m*3 14.6 C 0 km/h
211 03-03-2021 17:30:00 14.3 C 7.99 g/m*3 14.3 C 0 km/h
212 03-03-2021 17:35:00 14 C 7.84 g/m*3 14 C 0 km/h
213 03-03-2021 17:40:00 13.7 C 7.93 g/m*3 13.7 C 0 km/h
214 03-03-2021 17:45:00 13.4 C 7.79 g/m*3 13.4 C 0 km/h
215 03-03-2021 17:50:00 13.1 C 7.65 g/m*3 13.1 C 0 km/h
216 03-03-2021 17:55:00 12.7 C 7.57 g/m*3 12.7 C 0 km/h
217 03-03-2021 18:00:00 12.4 C 7.54 g/m*3 12.4 C 0 km/h
218 03-03-2021 18:05:00 12.1 C 7.51 g/m*3 12.1 C 0 km/h
219 03-03-2021 18:10:00 11.9 C 7.41 g/m*3 11.9 C 0 km/h
220 03-03-2021 18:15:00 11.7 C 7.43 g/m*3 11.7 C 0 km/h
221 03-03-2021 18:20:00 11.4 C 7.29 g/m*3 11.4 C 0 km/h
222 03-03-2021 18:25:00 11.3 C 7.34 g/m*3 11.3 C 0 km/h
223 03-03-2021 18:30:00 11.1 C 7.25 g/m*3 11.1 C 0 km/h
224 03-03-2021 18:35:00 10.8 C 7.22 g/m*3 10.8 C 0 km/h
225 03-03-2021 18:40:00 10.7 C 7.27 g/m*3 10.7 C 0 km/h
Sensor: Nr:Datum:Temp:Abs-Feuchte:Windchill:Wind:
Aussen-T/F 226 03-03-2021 18:45:00 10.6 C 7.22 g/m*3 10.6 C 0 km/h
227 03-03-2021 18:50:00 10.4 C 7.23 g/m*3 10.4 C 0 km/h
228 03-03-2021 18:55:00 10.3 C 7.18 g/m*3 10.3 C 0 km/h
229 03-03-2021 19:00:00 10.2 C 7.23 g/m*3 10.2 C 0 km/h
230 03-03-2021 19:05:00 10.1 C 7.19 g/m*3 10.1 C 0 km/h
231 03-03-2021 19:10:00 10 C 7.14 g/m*3 10 C 0 km/h
232 03-03-2021 19:15:00 9.9 C 7.1 g/m*3 9.9 C 0 km/h
233 03-03-2021 19:20:00 9.9 C 7.19 g/m*3 9.9 C 0 km/h
234 03-03-2021 19:25:00 9.8 C 7.14 g/m*3 9.8 C 0 km/h
235 03-03-2021 19:30:00 9.8 C 7.14 g/m*3 9.8 C 0 km/h
236 03-03-2021 19:35:00 9.7 C 7.1 g/m*3 9.7 C 0 km/h
237 03-03-2021 19:40:00 9.6 C 7.05 g/m*3 9.6 C 0 km/h
238 03-03-2021 19:45:00 9.4 C 6.96 g/m*3 9.4 C 0 km/h
239 03-03-2021 19:50:00 9.3 C 7.01 g/m*3 9.3 C 0 km/h
240 03-03-2021 19:55:00 9.3 C 7.1 g/m*3 9.3 C 0 km/h
241 03-03-2021 20:00:00 9.3 C 7.19 g/m*3 9.3 C 0 km/h
242 03-03-2021 20:05:00 9.2 C 7.05 g/m*3 9.2 C 0 km/h
243 03-03-2021 20:10:00 9.1 C 7.01 g/m*3 9.1 C 0 km/h
244 03-03-2021 20:15:00 9 C 6.96 g/m*3 9 C 0 km/h
245 03-03-2021 20:20:00 8.8 C 6.88 g/m*3 8.8 C 0 km/h
246 03-03-2021 20:25:00 8.7 C 6.83 g/m*3 8.7 C 0 km/h
247 03-03-2021 20:30:00 8.5 C 6.74 g/m*3 8.5 C 0 km/h
248 03-03-2021 20:35:00 8.3 C 6.74 g/m*3 8.3 C 0 km/h
249 03-03-2021 20:40:00 8.2 C 6.78 g/m*3 8.2 C 0 km/h
250 03-03-2021 20:45:00 8.2 C 6.87 g/m*3 8.2 C 0 km/h
Sensor: Nr:Datum:Temp:Abs-Feuchte:Windchill:Wind:
Aussen-T/F 251 03-03-2021 20:50:00 8.1 C 6.91 g/m*3 8.1 C 0 km/h
252 03-03-2021 20:55:00 8.1 C 6.91 g/m*3 8.1 C 0 km/h
253 03-03-2021 21:00:00 8.1 C 6.91 g/m*3 8.1 C 0 km/h
254 03-03-2021 21:05:00 8.1 C 6.91 g/m*3 8.1 C 0 km/h
255 03-03-2021 21:10:00 8 C 6.86 g/m*3 8 C 0 km/h
256 03-03-2021 21:15:00 7.9 C 6.82 g/m*3 7.9 C 0 km/h
257 03-03-2021 21:20:00 7.8 C 6.77 g/m*3 7.8 C 0 km/h
258 03-03-2021 21:25:00 7.8 C 6.77 g/m*3 7.8 C 0 km/h
259 03-03-2021 21:30:00 7.7 C 6.73 g/m*3 7.7 C 0 km/h
260 03-03-2021 21:35:00 7.7 C 6.73 g/m*3 7.7 C 0 km/h
261 03-03-2021 21:40:00 7.6 C 6.77 g/m*3 7.6 C 0 km/h
262 03-03-2021 21:45:00 7.6 C 6.77 g/m*3 7.6 C 0 km/h
263 03-03-2021 21:50:00 7.6 C 6.77 g/m*3 7.6 C 0 km/h
264 03-03-2021 21:55:00 7.6 C 6.77 g/m*3 7.6 C 0 km/h
265 03-03-2021 22:00:00 7.7 C 6.81 g/m*3 7.7 C 0 km/h
266 03-03-2021 22:05:00 7.7 C 6.81 g/m*3 7.7 C 0 km/h
267 03-03-2021 22:10:00 7.8 C 6.86 g/m*3 7.8 C 0 km/h
268 03-03-2021 22:15:00 7.8 C 6.86 g/m*3 7.8 C 0 km/h
269 03-03-2021 22:20:00 7.9 C 6.9 g/m*3 7.9 C 0 km/h
270 03-03-2021 22:25:00 8 C 6.94 g/m*3 8 C 0 km/h
271 03-03-2021 22:30:00 8.1 C 6.99 g/m*3 8.1 C 0 km/h
272 03-03-2021 22:35:00 8.1 C 6.91 g/m*3 8.1 C 0 km/h
273 03-03-2021 22:40:00 8 C 6.86 g/m*3 8 C 0 km/h
274 03-03-2021 22:45:00 7.9 C 6.82 g/m*3 7.9 C 0 km/h
275 03-03-2021 22:50:00 7.8 C 6.77 g/m*3 7.8 C 0 km/h
Sensor: Nr:Datum:Temp:Abs-Feuchte:Windchill:Wind:
Aussen-T/F 276 03-03-2021 22:55:00 7.8 C 6.86 g/m*3 7.8 C 0 km/h
277 03-03-2021 23:00:00 7.7 C 6.81 g/m*3 7.7 C 0 km/h
278 03-03-2021 23:05:00 7.7 C 6.81 g/m*3 7.7 C 0 km/h
279 03-03-2021 23:10:00 7.7 C 6.81 g/m*3 7.7 C 0 km/h
280 03-03-2021 23:15:00 7.7 C 6.89 g/m*3 7.7 C 0 km/h
281 03-03-2021 23:20:00 7.7 C 6.89 g/m*3 7.7 C 0 km/h
282 03-03-2021 23:25:00 7.7 C 6.89 g/m*3 7.7 C 0 km/h
283 03-03-2021 23:30:00 7.7 C 6.89 g/m*3 7.7 C 0 km/h
284 03-03-2021 23:35:00 7.8 C 6.94 g/m*3 7.8 C 0 km/h
285 03-03-2021 23:40:00 7.9 C 6.9 g/m*3 7.9 C 0 km/h
286 03-03-2021 23:45:00 8 C 6.94 g/m*3 8 C 0 km/h
287 03-03-2021 23:50:00 8 C 6.94 g/m*3 8 C 0 km/h
288 03-03-2021 23:55:00 7.9 C 6.82 g/m*3 7.9 C 0 km/h
289 04-03-2021 00:00:00 7.8 C 6.77 g/m*3 7.8 C 0 km/h
290 04-03-2021 00:05:00 7.8 C 6.77 g/m*3 7.8 C 0 km/h
291 04-03-2021 00:10:00 7.8 C 6.77 g/m*3 7.8 C 0 km/h
292 04-03-2021 00:15:00 7.7 C 6.73 g/m*3 7.7 C 0 km/h
293 04-03-2021 00:20:00 7.6 C 6.69 g/m*3 7.6 C 0 km/h
294 04-03-2021 00:25:00 7.4 C 6.6 g/m*3 7.4 C 0 km/h
295 04-03-2021 00:30:00 7.2 C 6.52 g/m*3 7.2 C 0 km/h
296 04-03-2021 00:35:00 7 C 6.51 g/m*3 7 C 0 km/h
297 04-03-2021 00:40:00 6.8 C 6.42 g/m*3 6.8 C 0 km/h
298 04-03-2021 00:45:00 6.7 C 6.46 g/m*3 6.7 C 0 km/h
299 04-03-2021 00:50:00 6.5 C 6.45 g/m*3 6.5 C 0 km/h
300 04-03-2021 00:55:00 6.4 C 6.41 g/m*3 6.4 C 0 km/h
Sensor: Nr:Datum:Temp:Abs-Feuchte:Windchill:Wind:
Aussen-T/F 301 04-03-2021 01:00:00 6.3 C 6.44 g/m*3 6.3 C 0 km/h
302 04-03-2021 01:05:00 6.2 C 6.4 g/m*3 6.2 C 0 km/h
303 04-03-2021 01:10:00 6.1 C 6.36 g/m*3 6.1 C 0 km/h
304 04-03-2021 01:15:00 6.1 C 6.43 g/m*3 6.1 C 0 km/h
305 04-03-2021 01:20:00 6.1 C 6.43 g/m*3 6.1 C 0 km/h
306 04-03-2021 01:25:00 6.1 C 6.5 g/m*3 6.1 C 0 km/h
307 04-03-2021 01:30:00 6.1 C 6.5 g/m*3 6.1 C 0 km/h
308 04-03-2021 01:35:00 6.1 C 6.5 g/m*3 6.1 C 0 km/h
309 04-03-2021 01:40:00 6.2 C 6.55 g/m*3 6.2 C 0 km/h
310 04-03-2021 01:45:00 6.1 C 6.5 g/m*3 6.1 C 0 km/h
311 04-03-2021 01:50:00 6 C 6.39 g/m*3 6 C 0 km/h
312 04-03-2021 01:55:00 5.9 C 6.35 g/m*3 5.9 C 0 km/h
313 04-03-2021 02:00:00 5.8 C 6.3 g/m*3 5.8 C 0 km/h
314 04-03-2021 02:05:00 5.8 C 6.3 g/m*3 5.8 C 0 km/h
315 04-03-2021 02:10:00 5.7 C 6.26 g/m*3 5.7 C 0 km/h
316 04-03-2021 02:15:00 5.6 C 6.29 g/m*3 5.6 C 0 km/h
317 04-03-2021 02:20:00 5.6 C 6.29 g/m*3 5.6 C 0 km/h
318 04-03-2021 02:25:00 5.5 C 6.25 g/m*3 5.5 C 0 km/h
319 04-03-2021 02:30:00 5.4 C 6.21 g/m*3 5.4 C 0 km/h
320 04-03-2021 02:35:00 5.4 C 6.21 g/m*3 5.4 C 0 km/h
321 04-03-2021 02:40:00 5.3 C 6.17 g/m*3 5.3 C 0 km/h
322 04-03-2021 02:45:00 5.1 C 6.09 g/m*3 5.1 C 0 km/h
323 04-03-2021 02:50:00 5 C 6.05 g/m*3 5 C 0 km/h
324 04-03-2021 02:55:00 4.9 C 6.08 g/m*3 4.9 C 0 km/h
325 04-03-2021 03:00:00 4.8 C 6.04 g/m*3 4.8 C 0 km/h
Sensor: Nr:Datum:Temp:Abs-Feuchte:Windchill:Wind:
Aussen-T/F 326 04-03-2021 03:05:00 4.8 C 6.04 g/m*3 4.8 C 0 km/h
327 04-03-2021 03:10:00 4.8 C 6.04 g/m*3 4.8 C 0 km/h
328 04-03-2021 03:15:00 4.7 C 6 g/m*3 4.7 C 0 km/h
329 04-03-2021 03:20:00 4.8 C 6.1 g/m*3 4.8 C 4.8 km/h
330 04-03-2021 03:25:00 4.9 C 6.14 g/m*3 4.9 C 4.8 km/h
331 04-03-2021 03:30:00 4.9 C 6.14 g/m*3 4.9 C 0 km/h
332 04-03-2021 03:35:00 4.8 C 6.04 g/m*3 4.8 C 0 km/h
333 04-03-2021 03:40:00 4.7 C 6 g/m*3 4.7 C 0 km/h
334 04-03-2021 03:45:00 4.6 C 6.02 g/m*3 4.6 C 0 km/h
335 04-03-2021 03:50:00 4.5 C 5.98 g/m*3 4.5 C 0 km/h
336 04-03-2021 03:55:00 4.5 C 5.98 g/m*3 4.5 C 0 km/h
337 04-03-2021 04:00:00 4.5 C 5.98 g/m*3 4.5 C 0 km/h
338 04-03-2021 04:05:00 4.5 C 6.05 g/m*3 4.5 C 0 km/h
339 04-03-2021 04:10:00 4.6 C 6.09 g/m*3 4.6 C 0 km/h
340 04-03-2021 04:15:00 4.6 C 6.09 g/m*3 4.6 C 0 km/h
341 04-03-2021 04:20:00 4.5 C 6.05 g/m*3 4.5 C 0 km/h
342 04-03-2021 04:25:00 4.5 C 6.05 g/m*3 4.5 C 0 km/h
343 04-03-2021 04:30:00 4.4 C 6.01 g/m*3 4.4 C 0 km/h
344 04-03-2021 04:35:00 4.3 C 5.9 g/m*3 4.3 C 0 km/h
345 04-03-2021 04:40:00 4.3 C 5.97 g/m*3 4.3 C 0 km/h
346 04-03-2021 04:45:00 4.2 C 5.93 g/m*3 4.2 C 0 km/h
347 04-03-2021 04:50:00 4.2 C 5.93 g/m*3 4.2 C 0 km/h
348 04-03-2021 04:55:00 4.3 C 5.97 g/m*3 4.3 C 0 km/h
349 04-03-2021 05:00:00 4.3 C 6.03 g/m*3 4.3 C 0 km/h
350 04-03-2021 05:05:00 4.4 C 6.07 g/m*3 4.4 C 1.6 km/h
Sensor: Nr:Datum:Temp:Abs-Feuchte:Windchill:Wind:
Aussen-T/F 351 04-03-2021 05:10:00 4.6 C 6.15 g/m*3 4.6 C 1.6 km/h
352 04-03-2021 05:15:00 4.7 C 6.19 g/m*3 4.7 C 0 km/h
353 04-03-2021 05:20:00 4.7 C 6.19 g/m*3 4.7 C 0 km/h
354 04-03-2021 05:25:00 4.8 C 6.24 g/m*3 4.8 C 0 km/h
355 04-03-2021 05:30:00 4.8 C 6.24 g/m*3 4.8 C 0 km/h
356 04-03-2021 05:35:00 4.8 C 6.24 g/m*3 4.8 C 1.6 km/h
357 04-03-2021 05:40:00 4.8 C 6.24 g/m*3 4.8 C 1.6 km/h
358 04-03-2021 05:45:00 4.8 C 6.24 g/m*3 4.8 C 3.2 km/h
359 04-03-2021 05:50:00 4.8 C 6.17 g/m*3 4.8 C 0 km/h
360 04-03-2021 05:55:00 4.7 C 6.13 g/m*3 4.7 C 0 km/h
361 04-03-2021 06:00:00 4.5 C 6.05 g/m*3 4.5 C 0 km/h
362 04-03-2021 06:05:00 4.4 C 6.01 g/m*3 4.4 C 1.6 km/h
363 04-03-2021 06:10:00 4.3 C 5.97 g/m*3 4.3 C 0 km/h
364 04-03-2021 06:15:00 4.2 C 5.93 g/m*3 4.2 C 0 km/h
365 04-03-2021 06:20:00 4.1 C 5.89 g/m*3 4.1 C 0 km/h
366 04-03-2021 06:25:00 3.9 C 5.81 g/m*3 3.9 C 0 km/h
367 04-03-2021 06:30:00 4 C 5.85 g/m*3 4 C 0 km/h
368 04-03-2021 06:35:00 3.9 C 5.81 g/m*3 3.9 C 0 km/h
369 04-03-2021 06:40:00 3.7 C 5.73 g/m*3 3.7 C 0 km/h
370 04-03-2021 06:45:00 3.7 C 5.73 g/m*3 3.7 C 0 km/h
371 04-03-2021 06:50:00 3.7 C 5.8 g/m*3 3.7 C 0 km/h
372 04-03-2021 06:55:00 3.6 C 5.69 g/m*3 3.6 C 0 km/h
373 04-03-2021 07:00:00 3.6 C 5.76 g/m*3 3.6 C 0 km/h
374 04-03-2021 07:05:00 3.4 C 5.62 g/m*3 3.4 C 0 km/h
375 04-03-2021 07:10:00 3.4 C 5.68 g/m*3 3.4 C 0 km/h
Sensor: Nr:Datum:Temp:Abs-Feuchte:Windchill:Wind:
Aussen-T/F 376 04-03-2021 07:15:00 3.3 C 5.64 g/m*3 3.3 C 0 km/h
377 04-03-2021 07:20:00 3.3 C 5.64 g/m*3 3.3 C 0 km/h
378 04-03-2021 07:25:00 3.3 C 5.64 g/m*3 3.3 C 0 km/h
379 04-03-2021 07:30:00 3.4 C 5.74 g/m*3 3.4 C 0 km/h
380 04-03-2021 07:35:00 3.7 C 5.86 g/m*3 3.7 C 1.6 km/h
381 04-03-2021 07:40:00 3.9 C 5.94 g/m*3 3.9 C 0 km/h
382 04-03-2021 07:45:00 3.9 C 5.94 g/m*3 3.9 C 0 km/h
383 04-03-2021 07:50:00 4 C 5.98 g/m*3 4 C 0 km/h
384 04-03-2021 07:55:00 4.1 C 6.02 g/m*3 4.1 C 0 km/h
385 04-03-2021 08:00:00 4.2 C 6.12 g/m*3 4.2 C 0 km/h
386 04-03-2021 08:05:00 4.3 C 6.16 g/m*3 4.3 C 0 km/h
387 04-03-2021 08:10:00 4.4 C 6.2 g/m*3 4.4 C 0 km/h
388 04-03-2021 08:15:00 4.5 C 6.24 g/m*3 4.5 C 0 km/h
389 04-03-2021 08:20:00 4.6 C 6.29 g/m*3 4.6 C 1.6 km/h
390 04-03-2021 08:25:00 4.7 C 6.26 g/m*3 4.7 C 1.6 km/h
391 04-03-2021 08:30:00 4.8 C 6.3 g/m*3 4.8 C 0 km/h
392 04-03-2021 08:35:00 4.9 C 6.35 g/m*3 4.9 C 0 km/h
393 04-03-2021 08:40:00 5 C 6.39 g/m*3 5 C 0 km/h
394 04-03-2021 08:45:00 5.1 C 6.43 g/m*3 5.1 C 0 km/h
395 04-03-2021 08:50:00 5.2 C 6.47 g/m*3 5.2 C 0 km/h
396 04-03-2021 08:55:00 5.3 C 6.52 g/m*3 5.3 C 4.8 km/h
397 04-03-2021 09:00:00 5.4 C 6.49 g/m*3 5.4 C 1.6 km/h
398 04-03-2021 09:05:00 5.5 C 6.53 g/m*3 5.5 C 1.6 km/h
399 04-03-2021 09:10:00 5.7 C 6.62 g/m*3 5.7 C 1.6 km/h
400 04-03-2021 09:15:00 5.9 C 6.71 g/m*3 5.9 C 0 km/h
Sensor: Nr:Datum:Temp:Abs-Feuchte:Windchill:Wind:
Aussen-T/F 401 04-03-2021 09:20:00 6.1 C 6.79 g/m*3 6.1 C 0 km/h
402 04-03-2021 09:25:00 6.2 C 6.77 g/m*3 6.2 C 1.6 km/h
403 04-03-2021 09:30:00 6.2 C 6.77 g/m*3 6.2 C 0 km/h
404 04-03-2021 09:35:00 6.3 C 6.81 g/m*3 6.3 C 0 km/h
405 04-03-2021 09:40:00 6.4 C 6.78 g/m*3 6.4 C 0 km/h
406 04-03-2021 09:45:00 6.6 C 6.87 g/m*3 6.6 C 0 km/h
407 04-03-2021 09:50:00 6.7 C 6.91 g/m*3 6.7 C 0 km/h
408 04-03-2021 09:55:00 6.9 C 7.01 g/m*3 6.9 C 0 km/h
409 04-03-2021 10:00:00 7.2 C 7.14 g/m*3 7.2 C 0 km/h
410 04-03-2021 10:05:00 7.6 C 7.25 g/m*3 7.6 C 1.6 km/h
411 04-03-2021 10:10:00 7.8 C 7.26 g/m*3 7.8 C 1.6 km/h
412 04-03-2021 10:15:00 8 C 7.36 g/m*3 8 C 0 km/h
413 04-03-2021 10:20:00 8.3 C 7.5 g/m*3 8.3 C 1.6 km/h
414 04-03-2021 10:25:00 8.6 C 7.56 g/m*3 8.6 C 4.8 km/h
415 04-03-2021 10:30:00 8.9 C 7.53 g/m*3 7.69 C 8.1 km/h
416 04-03-2021 10:35:00 9.2 C 7.5 g/m*3 8.45 C 6.4 km/h
417 04-03-2021 10:40:00 9.3 C 7.46 g/m*3 9.3 C 3.2 km/h
418 04-03-2021 10:45:00 9.3 C 7.46 g/m*3 9.3 C 4.8 km/h
419 04-03-2021 10:50:00 9.3 C 7.37 g/m*3 9.3 C 3.2 km/h
420 04-03-2021 10:55:00 9.3 C 7.46 g/m*3 9.3 C 4.8 km/h
421 04-03-2021 11:00:00 9.3 C 7.55 g/m*3 9.3 C 0 km/h
422 04-03-2021 11:05:00 9.3 C 7.55 g/m*3 9.3 C 0 km/h
423 04-03-2021 11:10:00 9.4 C 7.6 g/m*3 9.4 C 0 km/h
424 04-03-2021 11:15:00 9.5 C 7.55 g/m*3 9.5 C 1.6 km/h
425 04-03-2021 11:20:00 9.6 C 7.6 g/m*3 9.6 C 0 km/h
Sensor: Nr:Datum:Temp:Abs-Feuchte:Windchill:Wind:
Aussen-T/F 426 04-03-2021 11:25:00 9.7 C 7.65 g/m*3 9.7 C 0 km/h
427 04-03-2021 11:30:00 9.8 C 7.61 g/m*3 9.8 C 0 km/h
428 04-03-2021 11:35:00 9.8 C 7.7 g/m*3 9.8 C 1.6 km/h
429 04-03-2021 11:40:00 9.9 C 7.66 g/m*3 9.9 C 4.8 km/h
430 04-03-2021 11:45:00 10 C 7.8 g/m*3 9.37 C 6.4 km/h
431 04-03-2021 11:50:00 10.2 C 7.9 g/m*3 8.66 C 11.3 km/h
432 04-03-2021 11:55:00 10.2 C 7.9 g/m*3 8.66 C 11.3 km/h
433 04-03-2021 12:00:00 10.2 C 7.9 g/m*3 9.6 C 6.4 km/h
434 04-03-2021 12:05:00 10.2 C 7.8 g/m*3 8.92 C 9.7 km/h
435 04-03-2021 12:10:00 10.2 C 7.9 g/m*3 8.66 C 11.3 km/h
436 04-03-2021 12:15:00 10.3 C 7.95 g/m*3 8.55 C 12.9 km/h
437 04-03-2021 12:20:00 10.5 C 8.05 g/m*3 9.57 C 8.1 km/h
438 04-03-2021 12:25:00 10.7 C 8.05 g/m*3 9.52 C 9.7 km/h
439 04-03-2021 12:30:00 10.8 C 8.11 g/m*3 10.29 C 6.4 km/h
440 04-03-2021 12:35:00 10.7 C 8.05 g/m*3 9.04 C 12.9 km/h
441 04-03-2021 12:40:00 10.7 C 8.05 g/m*3 10.18 C 6.4 km/h
442 04-03-2021 12:45:00 10.8 C 8.11 g/m*3 9.93 C 8.1 km/h
443 04-03-2021 12:50:00 10.8 C 8.11 g/m*3 10.29 C 6.4 km/h
444 04-03-2021 12:55:00 10.8 C 8.11 g/m*3 10.8 C 1.6 km/h
445 04-03-2021 13:00:00 10.7 C 8.05 g/m*3 10.7 C 4.8 km/h
446 04-03-2021 13:05:00 10.7 C 8.15 g/m*3 10.7 C 1.6 km/h
447 04-03-2021 13:10:00 10.7 C 8.15 g/m*3 10.7 C 4.8 km/h
448 04-03-2021 13:15:00 11 C 8.21 g/m*3 10.16 C 8.1 km/h
449 04-03-2021 13:20:00 11.2 C 8.21 g/m*3 11.2 C 6.4 km/h
450 04-03-2021 13:25:00 11.3 C 8.26 g/m*3 11.3 C 0 km/h
Sensor: Nr:Datum:Temp:Abs-Feuchte:Windchill:Wind:
Aussen-T/F 451 04-03-2021 13:30:00 11.3 C 8.26 g/m*3 11.3 C 0 km/h
452 04-03-2021 13:35:00 11.4 C 8.21 g/m*3 11.4 C 0 km/h
453 04-03-2021 13:40:00 11.4 C 8.21 g/m*3 11.4 C 1.6 km/h
454 04-03-2021 13:45:00 11.3 C 8.16 g/m*3 11.3 C 1.6 km/h
455 04-03-2021 13:50:00 11.3 C 8.16 g/m*3 11.3 C 1.6 km/h
456 04-03-2021 13:55:00 11.3 C 8.16 g/m*3 11.3 C 4.8 km/h
457 04-03-2021 14:00:00 11.2 C 8.21 g/m*3 11.2 C 6.4 km/h
458 04-03-2021 14:05:00 11.2 C 8.21 g/m*3 11.2 C 0 km/h
459 04-03-2021 14:10:00 11.3 C 8.26 g/m*3 11.3 C 3.2 km/h
460 04-03-2021 14:15:00 11.3 C 8.26 g/m*3 11.3 C 4.8 km/h
461 04-03-2021 14:20:00 11.3 C 8.26 g/m*3 11.3 C 3.2 km/h
462 04-03-2021 14:25:00 11.3 C 8.26 g/m*3 11.3 C 1.6 km/h
463 04-03-2021 14:30:00 11.3 C 8.16 g/m*3 11.3 C 3.2 km/h
464 04-03-2021 14:35:00 11.3 C 8.16 g/m*3 11.3 C 1.6 km/h
465 04-03-2021 14:40:00 11.3 C 8.16 g/m*3 11.3 C 1.6 km/h
466 04-03-2021 14:45:00 11.2 C 8.11 g/m*3 11.2 C 6.4 km/h
467 04-03-2021 14:50:00 11.1 C 8.16 g/m*3 11.1 C 6.4 km/h
468 04-03-2021 14:55:00 11 C 8.21 g/m*3 10.52 C 6.4 km/h
469 04-03-2021 15:00:00 10.9 C 8.26 g/m*3 10.9 C 3.2 km/h
470 04-03-2021 15:05:00 10.8 C 8.2 g/m*3 10.8 C 4.8 km/h
471 04-03-2021 15:10:00 10.6 C 8.2 g/m*3 10.6 C 1.6 km/h
472 04-03-2021 15:15:00 10.6 C 8.39 g/m*3 10.6 C 1.6 km/h
473 04-03-2021 15:20:00 10.3 C 8.14 g/m*3 9.72 C 6.4 km/h
474 04-03-2021 15:25:00 10.2 C 8.18 g/m*3 9.22 C 8.1 km/h
475 04-03-2021 15:30:00 10 C 8.17 g/m*3 8.19 C 12.9 km/h
Sensor: Nr:Datum:Temp:Abs-Feuchte:Windchill:Wind:
Aussen-T/F 476 04-03-2021 15:35:00 9.7 C 8.11 g/m*3 8.33 C 9.7 km/h
477 04-03-2021 15:40:00 9.4 C 8.05 g/m*3 7.04 C 16.1 km/h
478 04-03-2021 15:45:00 9.2 C 7.95 g/m*3 9.2 C 4.8 km/h
479 04-03-2021 15:50:00 9.1 C 7.99 g/m*3 9.1 C 4.8 km/h
480 04-03-2021 15:55:00 8.9 C 7.88 g/m*3 8.9 C 1.6 km/h
481 04-03-2021 16:00:00 8.8 C 7.92 g/m*3 8.8 C 0 km/h
482 04-03-2021 16:05:00 8.8 C 7.92 g/m*3 8.8 C 0 km/h
483 04-03-2021 16:10:00 8.7 C 7.96 g/m*3 8.7 C 0 km/h
484 04-03-2021 16:15:00 8.7 C 7.96 g/m*3 8.7 C 0 km/h
485 04-03-2021 16:20:00 8.7 C 7.96 g/m*3 8.7 C 0 km/h
486 04-03-2021 16:25:00 8.7 C 7.96 g/m*3 8.7 C 0 km/h
487 04-03-2021 16:30:00 8.7 C 7.96 g/m*3 8.7 C 0 km/h
488 04-03-2021 16:35:00 8.7 C 8.04 g/m*3 8.7 C 0 km/h
489 04-03-2021 16:40:00 8.8 C 8.09 g/m*3 8.8 C 0 km/h
490 04-03-2021 16:45:00 8.8 C 8.09 g/m*3 8.8 C 0 km/h
491 04-03-2021 16:50:00 8.8 C 8.09 g/m*3 8.8 C 0 km/h
492 04-03-2021 16:55:00 8.7 C 8.04 g/m*3 8.7 C 0 km/h
493 04-03-2021 17:00:00 8.7 C 8.04 g/m*3 8.7 C 0 km/h
494 04-03-2021 17:05:00 8.7 C 8.04 g/m*3 8.7 C 1.6 km/h
495 04-03-2021 17:10:00 8.8 C 8.09 g/m*3 8.8 C 3.2 km/h
496 04-03-2021 17:15:00 8.6 C 7.99 g/m*3 5.86 C 17.7 km/h
497 04-03-2021 17:20:00 8.3 C 7.75 g/m*3 5.31 C 19.3 km/h
498 04-03-2021 17:25:00 8 C 7.61 g/m*3 4.93 C 19.3 km/h
499 04-03-2021 17:30:00 7.9 C 7.56 g/m*3 5.63 C 12.9 km/h
500 04-03-2021 17:35:00 7.7 C 7.46 g/m*3 5.38 C 12.9 km/h
Sensor: Nr:Datum:Temp:Abs-Feuchte:Windchill:Wind:
Aussen-T/F 501 04-03-2021 17:40:00 7.5 C 7.36 g/m*3 5.14 C 12.9 km/h
502 04-03-2021 17:45:00 7.4 C 7.32 g/m*3 5.28 C 11.3 km/h
503 04-03-2021 17:50:00 7.2 C 7.22 g/m*3 4.31 C 16.1 km/h
504 04-03-2021 17:55:00 7.2 C 7.22 g/m*3 5.35 C 9.7 km/h
505 04-03-2021 18:00:00 7.2 C 7.22 g/m*3 7.2 C 1.6 km/h
506 04-03-2021 18:05:00 7.1 C 7.18 g/m*3 7.1 C 3.2 km/h
507 04-03-2021 18:10:00 7.1 C 7.18 g/m*3 4.92 C 11.3 km/h
508 04-03-2021 18:15:00 7 C 7.21 g/m*3 5.9 C 6.4 km/h
509 04-03-2021 18:20:00 6.8 C 7.04 g/m*3 5.67 C 6.4 km/h
510 04-03-2021 18:25:00 6.7 C 7.07 g/m*3 4.17 C 12.9 km/h
511 04-03-2021 18:30:00 6.5 C 6.9 g/m*3 4.2 C 11.3 km/h
512 04-03-2021 18:35:00 6.4 C 6.93 g/m*3 6.4 C 3.2 km/h
513 04-03-2021 18:40:00 6.3 C 6.88 g/m*3 3.43 C 14.5 km/h
514 04-03-2021 18:45:00 6.1 C 6.79 g/m*3 4.04 C 9.7 km/h
515 04-03-2021 18:50:00 5.9 C 6.71 g/m*3 4.17 C 8.1 km/h
516 04-03-2021 18:55:00 5.8 C 6.66 g/m*3 5.8 C 3.2 km/h
517 04-03-2021 19:00:00 5.7 C 6.62 g/m*3 4.4 C 6.4 km/h
518 04-03-2021 19:05:00 5.7 C 6.62 g/m*3 5.7 C 3.2 km/h
519 04-03-2021 19:10:00 5.6 C 6.65 g/m*3 5.6 C 0 km/h
520 04-03-2021 19:15:00 5.6 C 6.65 g/m*3 5.6 C 0 km/h
521 04-03-2021 19:20:00 5.4 C 6.49 g/m*3 2.87 C 11.3 km/h
522 04-03-2021 19:25:00 5.3 C 6.45 g/m*3 2.75 C 11.3 km/h
523 04-03-2021 19:30:00 5.1 C 6.36 g/m*3 3.71 C 6.4 km/h
524 04-03-2021 19:35:00 5 C 6.32 g/m*3 3.59 C 6.4 km/h
525 04-03-2021 19:40:00 4.9 C 6.28 g/m*3 4.9 C 3.2 km/h
Sensor: Nr:Datum:Temp:Abs-Feuchte:Windchill:Wind:
Aussen-T/F 526 04-03-2021 19:45:00 4.8 C 6.17 g/m*3 2.15 C 11.3 km/h
527 04-03-2021 19:50:00 4.7 C 6.13 g/m*3 2.37 C 9.7 km/h
528 04-03-2021 19:55:00 4.6 C 6.09 g/m*3 1.91 C 11.3 km/h
529 04-03-2021 20:00:00 4.5 C 6.05 g/m*3 1.79 C 11.3 km/h
530 04-03-2021 20:05:00 4.4 C 6.01 g/m*3 2.01 C 9.7 km/h
531 04-03-2021 20:10:00 4.4 C 6.01 g/m*3 2.01 C 9.7 km/h
532 04-03-2021 20:15:00 4.3 C 5.97 g/m*3 2.78 C 6.4 km/h
533 04-03-2021 20:20:00 4.2 C 5.93 g/m*3 2.17 C 8.1 km/h
534 04-03-2021 20:25:00 4.2 C 5.93 g/m*3 2.17 C 8.1 km/h
535 04-03-2021 20:30:00 4.1 C 5.89 g/m*3 1.31 C 11.3 km/h
536 04-03-2021 20:35:00 4 C 5.85 g/m*3 1.93 C 8.1 km/h
537 04-03-2021 20:40:00 4 C 5.91 g/m*3 1.93 C 8.1 km/h
538 04-03-2021 20:45:00 4 C 5.91 g/m*3 2.44 C 6.4 km/h
539 04-03-2021 20:50:00 4 C 5.91 g/m*3 1.18 C 11.3 km/h
540 04-03-2021 20:55:00 4 C 5.91 g/m*3 1.93 C 8.1 km/h
541 04-03-2021 21:00:00 4 C 5.91 g/m*3 1.53 C 9.7 km/h
542 04-03-2021 21:05:00 4 C 5.91 g/m*3 1.18 C 11.3 km/h
543 04-03-2021 21:10:00 4 C 5.91 g/m*3 1.18 C 11.3 km/h
544 04-03-2021 21:15:00 4 C 5.91 g/m*3 2.44 C 6.4 km/h
545 04-03-2021 21:20:00 4.1 C 5.95 g/m*3 4.1 C 4.8 km/h
546 04-03-2021 21:25:00 4.1 C 5.95 g/m*3 2.05 C 8.1 km/h
547 04-03-2021 21:30:00 4.1 C 5.95 g/m*3 1.65 C 9.7 km/h
548 04-03-2021 21:35:00 4.1 C 5.95 g/m*3 2.05 C 8.1 km/h
549 04-03-2021 21:40:00 4.1 C 5.95 g/m*3 1.31 C 11.3 km/h
550 04-03-2021 21:45:00 4.1 C 5.95 g/m*3 1.65 C 9.7 km/h
Sensor: Nr:Datum:Temp:Abs-Feuchte:Windchill:Wind:
Aussen-T/F 551 04-03-2021 21:50:00 4.1 C 5.95 g/m*3 2.55 C 6.4 km/h
552 04-03-2021 21:55:00 4.1 C 5.95 g/m*3 2.55 C 6.4 km/h
553 04-03-2021 22:00:00 4.1 C 5.95 g/m*3 2.05 C 8.1 km/h
554 04-03-2021 22:05:00 4.1 C 5.95 g/m*3 1.65 C 9.7 km/h
555 04-03-2021 22:10:00 4.1 C 5.95 g/m*3 2.55 C 6.4 km/h
556 04-03-2021 22:15:00 4.1 C 5.95 g/m*3 2.55 C 6.4 km/h
557 04-03-2021 22:20:00 4.1 C 5.95 g/m*3 4.1 C 4.8 km/h
558 04-03-2021 22:25:00 4.1 C 5.95 g/m*3 2.55 C 6.4 km/h
559 04-03-2021 22:30:00 4.1 C 5.95 g/m*3 2.55 C 6.4 km/h
560 04-03-2021 22:35:00 4.1 C 5.95 g/m*3 4.1 C 1.6 km/h
561 04-03-2021 22:40:00 4.2 C 5.99 g/m*3 2.67 C 6.4 km/h
562 04-03-2021 22:45:00 4.2 C 5.99 g/m*3 2.67 C 6.4 km/h
563 04-03-2021 22:50:00 4.2 C 5.99 g/m*3 2.17 C 8.1 km/h
564 04-03-2021 22:55:00 4.2 C 5.99 g/m*3 2.67 C 6.4 km/h
565 04-03-2021 23:00:00 4.2 C 5.99 g/m*3 2.67 C 6.4 km/h
566 04-03-2021 23:05:00 4.2 C 5.99 g/m*3 4.2 C 4.8 km/h
567 04-03-2021 23:10:00 4.2 C 5.99 g/m*3 2.17 C 8.1 km/h
568 04-03-2021 23:15:00 4.2 C 5.99 g/m*3 4.2 C 3.2 km/h
569 04-03-2021 23:20:00 4.2 C 5.99 g/m*3 4.2 C 0 km/h
570 04-03-2021 23:25:00 4.2 C 5.99 g/m*3 2.67 C 6.4 km/h
571 04-03-2021 23:30:00 4.2 C 5.99 g/m*3 4.2 C 4.8 km/h
572 04-03-2021 23:35:00 4.2 C 5.99 g/m*3 2.67 C 6.4 km/h
573 04-03-2021 23:40:00 4.2 C 5.99 g/m*3 4.2 C 3.2 km/h
574 04-03-2021 23:45:00 4.2 C 5.99 g/m*3 2.67 C 6.4 km/h
575 04-03-2021 23:50:00 4.2 C 5.99 g/m*3 4.2 C 4.8 km/h
Sensor: Nr:Datum:Temp:Abs-Feuchte:Windchill:Wind:
Aussen-T/F 576 04-03-2021 23:55:00 4.2 C 5.99 g/m*3 4.2 C 3.2 km/h

Legende:
   Min
   Max


Maximal/Minimal-Werte vom 03.03.2021 - 04.03.2021

Sensor Min Max Avg
Temp
(Aussen-T/F)
0.6 °C
03-03-2021  07:25:00
16.8 °C
03-03-2021  16:20:00
6.7 °C
Abs-Feuchte
(Aussen-T/F)
4.8 g/m*3
03-03-2021  07:25:00
8.39 g/m*3
04-03-2021  15:15:00
6.52 g/m*3
Windchill
(Aussen-T/F)
0.6 C
03-03-2021  07:25:00
16.8 C
03-03-2021  16:20:00
6.41 C

Die Daten stammen von einer Davis Vantage Pro 2 Wetter-Station und werden unter Linux mit der Software wview2wettercgi und aufbereitet. Alle Angaben erfolgen ohne Gewähr für ihre Vollständigkeit oder Richtigkeit.
Kontakt: Rainer Krienke krienke@uni-koblenz.de . Meine Webseiten an der Uni Koblenz oder privat.
Version: $Revision: 0.78 $